Location: Newark
(31.5350°N, 35.0986°E)
Time: 17:52:04
(UTC+00:00)

Altair - Visible Passes

Search period start: 23 September 2019 00:00
Search period end: 03 October 2019 00:00
Orbit: 1501 x 1683 km, 47.2° (Epoch: 21 September)

Date Brightness Start Highest point End Pass type
(mag) Time Alt. Az. Time Alt. Az. Time Alt. Az.
23 Sep 8.7 17:40:15 10° WNW 17:49:23 36° NNW 17:56:59 15° NE visible
23 Sep 8.8 19:47:51 10° NW 19:54:59 33° N 19:54:59 33° N visible
24 Sep 8.7 17:14:47 10° W 17:24:00 38° NNW 17:32:53 11° NE visible
24 Sep 8.7 19:22:31 10° NW 19:30:52 34° N 19:30:52 34° N visible
24 Sep 9.7 21:28:03 10° NW 21:28:51 13° NW 21:28:51 13° NW visible
25 Sep 8.7 16:49:20 10° W 16:58:37 39° NNW 17:07:57 10° NE visible
25 Sep 8.6 18:57:10 10° NW 19:06:07 33° N 19:06:45 33° NNE visible
25 Sep 9.5 21:02:49 10° NW 21:04:45 17° NW 21:04:45 17° NW visible
26 Sep 8.6 16:23:54 10° W 16:33:15 41° NNW 16:42:41 10° NE visible
26 Sep 8.6 18:31:48 10° NW 18:40:42 33° N 18:42:39 31° NNE visible
26 Sep 9.3 20:37:35 10° NW 20:40:38 22° NW 20:40:38 22° NW visible
27 Sep 8.6 15:58:28 10° W 16:07:54 42° NNW 16:17:26 10° NE visible
27 Sep 8.7 18:06:25 10° WNW 18:15:19 33° N 18:18:33 27° NE visible
27 Sep 9.0 20:12:22 10° NW 20:16:32 27° NW 20:16:32 27° NW visible
28 Sep 8.6 15:33:04 10° W 15:42:33 44° NNW 15:52:11 10° NE visible
28 Sep 8.7 17:41:02 10° WNW 17:49:53 32° N 17:54:28 23° NE visible
28 Sep 8.8 19:47:08 10° NW 19:52:27 33° NNW 19:52:27 33° NNW visible
29 Sep 8.7 17:15:38 10° WNW 17:24:28 32° N 17:30:23 19° NE visible
29 Sep 8.6 19:21:54 10° NW 19:28:23 38° NNW 19:28:23 38° NNW visible
30 Sep 8.7 16:50:14 10° WNW 16:59:04 32° N 17:06:19 15° NE visible
30 Sep 8.4 18:56:39 10° NW 19:04:20 42° N 19:04:20 42° N visible
30 Sep 9.7 21:01:42 10° NW 21:02:19 12° NW 21:02:19 12° NW visible
01 Oct 8.8 16:24:49 10° WNW 16:33:38 32° N 16:42:18 11° ENE visible
01 Oct 8.2 18:31:24 10° NW 18:40:17 43° NNE 18:40:17 43° NNE visible
01 Oct 9.5 20:36:27 10° NW 20:38:17 17° NW 20:38:17 17° NW visible
02 Oct 8.8 15:59:24 10° WNW 16:08:14 33° N 16:17:06 10° NE visible
02 Oct 8.2 18:06:09 10° NW 18:15:39 42° NNE 18:16:17 41° NNE visible
02 Oct 9.2 20:11:12 10° NW 20:14:17 23° NW 20:14:17 23° NW visible
